Weather History for Central Park, NY

Change the Weather History Date:

Saturday, March 2, 2013

  Actual Average Record
Temperature  
Mean Temperature 36 °F 38 °F  
Max Temperature 40 °F 45 °F 72 °F (1972)
Min Temperature 31 °F 32 °F 9 °F (1891)
Degree Days  
Heating Degree Days 29 27  
Month to date heating degree days 53 54  
Since 1 July heating degree days 3426 3576  
Cooling Degree Days 0 0  
Month to date cooling degree days 0 0  
Year to date cooling degree days 0 0  
Moisture  
Dew Point 23 °F    
Average Humidity 59    
Maximum Humidity 69    
Minimum Humidity 48    
Precipitation  
Precipitation T in 0.12 in 2.41 in (2007)
Month to date precipitation T 0.25  
Year to date precipitation 7.01 6.99  
Snow  
Snow T in 0.20 in 10.00 in (1896)
Month to date snowfall T 0.4  
Since 1 July snowfall 18.8 21.7  
Snow Depth 0.00 in    
Sea Level Pressure  
Sea Level Pressure 29.75 in    
Wind  
Wind Speed 8 mph (NW)    
Max Wind Speed 13 mph    
Max Gust Speed 19 mph    
Visibility 9 miles    
Events Snow    
T = Trace of Precipitation, MM = Missing Value Source: NWS Daily Summary

Daily Weather History Graph

Daily Weather History Graph

Search for Another Location

Airport:

Trip Planner

Search our weather history database for the weather conditions in past years. The results will help you decide how hot, cold, wet, or windy it might be!

Date:

Astronomy

Mar. 02, 2013 Rise Set
Actual Time 6:27 AM EST 5:48 PM EST
Civil Twilight 6:00 AM EST 6:15 PM EST
Nautical Twilight 5:28 AM EST 6:47 PM EST
Astronomical Twilight 4:57 AM EST 7:19 PM EST
Moon 11:27 PM EST 8:52 AM EST
Length of Visible Light 12h 15m
Length of Day
11h 20m
Waning Gibbous, 74% of the Moon is Illuminated
Mar 2
Waning Gibbous
Mar 4
Last Quarter
Mar 11
New
Mar 19
First Quarter
Mar 27
Full

Hourly Weather History & Observations

Time (EST) Temp. Windchill Dew Point Humidity Pressure Visibility Wind Dir Wind Speed Gust Speed Precip Events Conditions
12:51 AM 36.0 °F 31.1 °F 23.0 °F 59% 29.76 in 10.0 mi Variable 5.8 mph - N/A   Overcast
1:51 AM 35.1 °F 27.9 °F 23.0 °F 61% 29.76 in 10.0 mi NW 9.2 mph - N/A   Overcast
2:51 AM 35.1 °F 31.0 °F 21.9 °F 59% 29.76 in 10.0 mi Variable 4.6 mph - N/A   Overcast
3:51 AM 35.1 °F 26.9 °F 21.9 °F 59% 29.77 in 10.0 mi NW 11.5 mph - N/A   Overcast
4:51 AM 34.0 °F 27.2 °F 21.9 °F 61% 29.77 in 10.0 mi NW 8.1 mph - N/A   Overcast
5:51 AM 34.0 °F 28.8 °F 21.9 °F 61% 29.76 in 10.0 mi Variable 5.8 mph - N/A   Overcast
6:51 AM 34.0 °F 28.0 °F 21.9 °F 61% 29.77 in 10.0 mi NW 6.9 mph - N/A   Overcast
7:51 AM 34.0 °F 28.0 °F 21.0 °F 59% 29.77 in 10.0 mi WNW 6.9 mph - N/A   Overcast
8:51 AM 35.1 °F 29.3 °F 21.0 °F 57% 29.77 in 10.0 mi WNW 6.9 mph - N/A   Overcast
9:51 AM 37.0 °F 31.6 °F 21.0 °F 52% 29.75 in 10.0 mi Variable 6.9 mph - N/A   Clear
10:51 AM 39.0 °F 35.7 °F 21.9 °F 50% 29.75 in 10.0 mi Variable 4.6 mph - N/A   Mostly Cloudy
11:51 AM 39.0 °F 32.8 °F 21.9 °F 50% 29.74 in 10.0 mi NW 9.2 mph - N/A   Overcast
12:51 PM 37.9 °F 34.4 °F 21.9 °F 53% 29.72 in 10.0 mi WNW 4.6 mph - N/A   Overcast
1:51 PM 37.9 °F 32.1 °F 23.0 °F 55% 29.71 in 10.0 mi NW 8.1 mph - N/A   Overcast
2:51 PM 37.9 °F 32.7 °F 23.0 °F 55% 29.70 in 10.0 mi Variable 6.9 mph - N/A   Overcast
3:15 PM - - - N/A% - - North - - N/A   Unknown
3:51 PM 37.9 °F 30.5 °F 24.1 °F 57% 29.70 in 10.0 mi West 11.5 mph - N/A   Overcast
4:51 PM 37.0 °F - 21.9 °F 54% 29.71 in 10.0 mi North - - N/A   Overcast
5:51 PM 37.0 °F 31.6 °F 21.9 °F 54% 29.72 in 10.0 mi NW 6.9 mph - N/A   Overcast
6:51 PM 36.0 °F 30.3 °F 23.0 °F 59% 29.74 in 10.0 mi Variable 6.9 mph 18.4 mph N/A   Overcast
7:51 PM 34.0 °F 28.8 °F 24.1 °F 67% 29.75 in 8.0 mi Variable 5.8 mph - N/A   Overcast
8:11 PM 33.1 °F 25.5 °F 26.1 °F 75% 29.77 in 2.5 mi NW 9.2 mph - 0.00 in Snow Light Snow
8:51 PM 32.0 °F 23.6 °F 26.1 °F 79% 29.75 in 2.5 mi NW 10.4 mph 17.3 mph 0.00 in Snow Light Snow
8:56 PM 32.0 °F 25.6 °F 26.1 °F 79% 29.77 in 3.0 mi NW 6.9 mph 17.3 mph 0.00 in Snow Light Snow
9:51 PM 30.9 °F 22.2 °F 25.0 °F 79% 29.75 in 4.0 mi NW 10.4 mph - 0.00 in Snow Light Snow
10:51 PM 32.0 °F 24.2 °F 24.1 °F 73% 29.73 in 10.0 mi WNW 9.2 mph - 0.00 in   Overcast
11:51 PM 30.9 °F 22.8 °F 23.0 °F 72% 29.73 in 10.0 mi NW 9.2 mph - N/A   Overcast